Location: Kudlacze
(49.7800°N, 20.0200°E)
Time: 11:58:21
(UTC+00:00)

Envisat - Pass Details

Date: 05 October 2021
Orbit: 764 x 766 km, 98.2° (Epoch: 20 October)

Event Time Altitude Azimuth Distance (km) Brightness Sun altitude
Rises 02:43:58 0° 25° (NNE) 3,243 6.9 -20.3°
Reaches altitude 10° 02:46:51 10° 41° (NE) 2,311 6.3 -19.8°
Maximum altitude 02:50:40 21° 90° (E) 1,674 5.6 -19.3°
Drops below altitude 10° 02:54:26 10° 139° (SE) 2,298 5.8 -18.7°
Sets 02:57:17 0° 155° (SSE) 3,218 6.4 -18.2°
